Location: Croagnes
(43.9363°N, 5.3265°E)
Time: 21:13:29
(UTC+00:00)

Meteor 1-16 Rocket - Pass Details

Date: 02 October 2020
Orbit: 790 x 908 km, 81.2° (Epoch: 22 October)

Event Time Altitude Azimuth Distance (km) Brightness Sun altitude
Exits shadow 20:56:29 33° 295° (WNW) 1,462 5.8 -38.0°
Drops below altitude 10° 21:01:26 10° 353° (N) 2,558 7.1 -38.7°
Sets 21:04:08 0° 3° (N) 3,484 7.8 -39.1°
